Location: Tauranga
(37.6860°S, 176.1670°E)
Time: 10:29:15
(UTC+13:00)

SeaSat 1 - Pass Details

Date: 24 January 2019
Orbit: 744 x 748 km, 108.0° (Epoch: 22 February)

Event Time Altitude Azimuth Distance (km) Brightness Sun altitude
Rises 23:37:08 0° 157° (SSE) 3,219 6.2 -27.5°
Reaches altitude 10° 23:39:26 10° 157° (SSE) 2,289 5.4 -27.7°
Enters shadow 23:43:58 73° 184° (S) 791 2.6 -28.1°
